Regional Weather Roundup
Issued by NWS Upton, NY

Home | Current Version | Previous Version | Text Only | Print | Product List | Glossary On
Versions: 1 2 3 4 5 6 7 8 9 10 11 12 13 14 15 16 17 18 19 20 21 22 23 24 25 26 27
000
ASUS41 KOKX 260104
RWROKX

REGIONAL WEATHER ROUNDUP
NATIONAL WEATHER SERVICE NEW YORK NY
900 PM EDT WED MAY 25 2016

NOTE: "FAIR" INDICATES FEW OR NO CLOUDS BELOW 12,000 FEET WITH NO
SIGNIFICANT WEATHER AND/OR OBSTRUCTIONS TO VISIBILITY.

NYZ071-072-176-178-NJZ106-104-260200-
NEW YORK CITY METRO AREA


CITY           SKY/WX    TMP DP  RH WIND       PRES   REMARKS
CENTRAL PARK   CLEAR     80  42  25 VRB5      30.07R
LAGUARDIA APRT PTCLDY    84  50  30 SW8       30.03R
KENNEDY INTL   PTCLDY    75  49  39 SW10      30.05R
NEWARK/LIBERTY PTCLDY    82  44  26 SW13      30.04R
BRNX BOT. GARD   N/A     82  43  24 SW1       30.04R
TETERBORO      CLEAR     80  43  26 SW8       30.02R
$$

NYZ177-179-078>081-260200-
LONG ISLAND NEW YORK

CITY           SKY/WX    TMP DP  RH WIND       PRES   REMARKS
FARMINGDALE    CLEAR     70  53  54 SW6       30.04S
ISLIP          PTCLDY    69  52  54 SW5       30.04S
SHIRLEY        CLEAR     69  53  56 SW5       30.05S
RIVERHEAD        N/A     70  52  52 CALM      30.03S
WESTHAMPTON    NOT AVBL
EAST HAMPTON   FAIR      71  48  44 SW7       30.03S
MONTAUK POINT    N/A     72  48  42 SW10      30.03S
$$

NYZ052-065-067-260200-
HUDSON VALLEY

CITY           SKY/WX    TMP DP  RH WIND       PRES   REMARKS
WHITE PLAINS   CLEAR     80  42  25 VRB3      30.04R
NEWBURGH       PTCLDY    75  57  53 CALM      30.05R
MONTGOMERY     CLEAR     69  58  67 CALM      30.03R
POUGHKEEPSIE   CLEAR     72  57  59 CALM      30.02R
ALBANY         PTCLDY    77  52  41 NW7       30.02R
$$

NJZ001-105-106-008-010-013-015-019>022-104-260200-
NEW JERSEY

CITY           SKY/WX    TMP DP  RH WIND       PRES   REMARKS
NEWARK/LIBERTY PTCLDY    82  44  26 SW13      30.04R
TETERBORO      CLEAR     80  43  26 SW8       30.02R
CALDWELL       CLEAR     79  46  31 SW3       30.04R
MORRISTOWN     PTCLDY    75  48  38 SW7       30.05R
SOMERVILLE     CLEAR     69  54  58 CALM      30.04R
SUSSEX         CLEAR     70  55  59 CALM      30.05R
ANDOVER          N/A     68  58  70 CALM      30.06R
TRENTON        CLEAR     78  47  33 SW5       30.06R
MILLVILLE      PTCLDY    67  57  70 CALM      30.10R
ATLANTIC CITY  CLEAR     74  54  49 S6        30.09R
WRIGHTSTOWN    CLEAR     71  53  52 SW8       30.05R
TOMS RIVER     CLEAR     70  46  43 SW6       30.08R
BELMAR         CLEAR     77  47  34 SW7       30.08R
$$

PAZ047>061-062-071-260200-
EASTERN PENNSYLVANIA

CITY           SKY/WX    TMP DP  RH WIND       PRES   REMARKS
PHILADELPHIA   PTCLDY    79  50  36 SW12      30.09R
ALLENTOWN      CLEAR     69  50  50 SW7       30.07R
SCRANTON       CLEAR     74  52  46 SW5       30.08R
$$

CTZ002-004>006-009-010-012-RIZ004-006-007-MAZ004-011-015-260200-
SOUTHERN NEW ENGLAND
 IN CT

CITY           SKY/WX    TMP DP  RH WIND       PRES   REMARKS
BRADLEY INTL   PTCLDY    76  50  40 W7        30.00S
HARTFORD       MOCLDY    76  54  46 CALM      30.01R
DANBURY        MOCLDY    68  55  63 SW5       30.05R
WTRBRY/OXFORD  PTCLDY    72  50  46 CALM      30.05S
BRIDGEPORT     CLEAR     71  53  52 NW7       30.03R
MERIDEN        CLEAR     70  55  59 CALM      30.02S
NEW HAVEN      CLEAR     69  52  54 CALM      30.03R
CHESTER        FAIR      72  50  46 SW6       30.05R
GROTON         CLEAR     70  54  56 W5        30.02R
WILLIMANTIC    CLEAR     76  51  41 W3        30.02R

 IN RI

CITY           SKY/WX    TMP DP  RH WIND       PRES   REMARKS
PROVIDENCE     MOCLDY    79  50  36 W10       30.00R
BLOCK ISLAND   CLEAR     64  51  62 SW18G24   30.03R
WESTERLY       CLEAR     71  50  47 SW6       30.02R

 IN MA

CITY           SKY/WX    TMP DP  RH WIND       PRES   REMARKS
BOSTON         CLOUDY    82  49  31 W14G24    29.96R
WORCESTER      PTCLDY    71  50  47 W9        30.03R
WESTFIELD      CLEAR     69  54  58 SW6       30.00S
PROVINCETOWN   PTCLDY    63  55  75 SW7       29.97R
NANTUCKET      CLEAR     61  51  70 SW13      30.01R
$$

ANZ330-335-338-340-345-350-353-355-260200-
COASTAL MARINE OBSERVATIONS


STATION/POSITION TIME  SKY/WX   TEMP    WIND        PRES    VSBY  WAVE
                                AIR SEA DIR/SP/G                  HT/PER
                 (UTC)          (F)     (DEG/KT/KT) (MB)    (MI)  (FT/S)
NY HARB ENTRANCE 2350            64 61  200/ 10/ 10 1017.0          2/ 8
20S FIRE ISLAND  2350            61 57  210/ 12/ 14 1017.2          3/ 8
GREAT SOUTH BAY  0000            67 66  220/ 12/ 16   N/A
23 SSW MONTAUK P 0050            60 55  230/ 12/ 14 1016.6          3/ 6
15 E BARNEGAT LI 0022               56                N/A           3/ 9
HUDSON CANYON    2350            60 55              1018.7          3/ 9
KINGS POINT      0000               62              1016.4
EXECUTION ROCKS  NOT AVBL
CENTRAL LI SOUND 0000            67     210/ 12/ 12   N/A           1
EASTERN LI SOUND 0000            64 53  260/  8/ 12   N/A
ROBBINS REEF     0000                   230/ 11/ 14 1016.3
$$


>>>>>>>>>>>>>>>>>>>>>>>>>>>> KEY <<<<<<<<<<<<<<<<<<<<<<<<<<<
>                                                          <
>     SKY/WX - SKY CONDITION/PRESENT WEATHER               <
>     TMP    - TEMPERATURE IN FAHRENHEIT                   <
>     DP     - DEWPOINT IN FAHRENHEIT                      <
>     RH     - RELATIVE HUMIDITY IN PERCENT                <
>     WIND   - DIRECTION AND SPEED IN MPH                  <
>     PRES   - MEAN SEA LEVEL PRESSURE IN INCHES OF HG     <
>     WCI    - WIND CHILL INDEX                            <
>     VSB    - VISIBILITY IN MILES                         <
>     HX     - HEAT INDEX                                  <
>     TC     - TEMPERATURE IN CELSIUS                      <
>     VRB    - VARIABLE WIND DIRECTION                     <
>                                                          <
>>>>>>>>>>>>>>>>>>>>>>>>>>>> KEY <<<<<<<<<<<<<<<<<<<<<<<<<<<






USA.gov is the U.S. government's official web portal to all federal, state and local government web resources and services.